Location: Blériot-Plage
(50.9575°N, 1.8224°E)
Time: 12:29:30
(UTC+00:00)

BREEZE-M DEB (TANK) - Pass Details

Date: 15 May 2026
Orbit: 262 x 12018 km, 49.5° (Epoch: 6 June)

Event Time Altitude Azimuth Distance (km) Brightness Sun altitude
Rises 21:14:00 0° 260° (W) 3,113 6.5 -12.2°
Reaches altitude 10° 21:17:04 10° 256° (WSW) 1,550 4.9 -12.5°
Maximum altitude 21:19:52 58° 176° (S) 350 1.0 -12.7°
Enters shadow 21:20:43 28° 106° (ESE) 554 1.9 -12.8°
